• In Belarus
  • List of Countries
  • For 7 days
  • Water Temperature
  • Satellite Maps
  • Weather Map
  • Weather Widgets
  • user-avatar
    Login

    Hourly Weather Wagroda

    Today, 20 February, Wednesday

    Time Temperature Precipitation Wind Pressure Humidity
    00:00 +3°C° 0 mm 5 mps 755 mmHg 83%
    01:00 +3°C° 0 mm 5 mps 756 mmHg 83%
    02:00 +3°C° 0 mm 5 mps 756 mmHg 84%
    03:00 +3°C° 0 mm 5 mps 756 mmHg 86%
    04:00 +2°C° 0 mm 5 mps 756 mmHg 87%
    05:00 +2°C° 0 mm 5 mps 756 mmHg 88%
    06:00 +2°C° 0 mm 5 mps 756 mmHg 88%
    07:00 +2°C° 0 mm 5 mps 757 mmHg 88%
    08:00 +2°C° 0 mm 5 mps 757 mmHg 85%
    09:00 +3°C° 0 mm 5 mps 757 mmHg 81%
    10:00 +4°C° 0 mm 6 mps 758 mmHg 78%
    11:00 +4°C° 0 mm 6 mps 758 mmHg 74%
    12:00 +5°C° 0 mm 6 mps 758 mmHg 69%
    13:00 +7°C° 0 mm 6 mps 759 mmHg 65%
    14:00 +7°C° 0 mm 5 mps 759 mmHg 65%
    15:00 +7°C° 0 mm 4 mps 759 mmHg 66%
    16:00 +7°C° 0 mm 4 mps 759 mmHg 66%
    17:00 +7°C° 0 mm 3 mps 759 mmHg 69%
    18:00 +7°C° 0 mm 3 mps 760 mmHg 73%
    19:00 +7°C° 0 mm 3 mps 760 mmHg 76%
    20:00 +7°C° 0 mm 3 mps 760 mmHg 77%
    21:00 +5°C° 0 mm 3 mps 760 mmHg 78%
    22:00 +5°C° 0 mm 3 mps 761 mmHg 80%
    23:00 +5°C° 0 mm 3 mps 761 mmHg 81%

    Tomorrow, 21 February, Thursday

    Time Temperature Precipitation Wind Pressure Humidity
    00:00 +5°C° 0 mm 3 mps 761 mmHg 82%
    01:00 +4°C° 0 mm 3 mps 761 mmHg 83%
    02:00 +4°C° 0 mm 3 mps 761 mmHg 82%
    03:00 +4°C° 0 mm 3 mps 760 mmHg 81%
    04:00 +3°C° 0 mm 3 mps 760 mmHg 81%
    05:00 +4°C° 0.1 mm 4 mps 760 mmHg 81%
    06:00 +4°C° 0.1 mm 4 mps 760 mmHg 81%
    07:00 +3°C° 0.1 mm 5 mps 760 mmHg 81%
    08:00 +5°C° 0.5 mm 5 mps 760 mmHg 80%
    09:00 +5°C° 0.5 mm 5 mps 760 mmHg 79%
    10:00 +4°C° 0.5 mm 6 mps 760 mmHg 79%
    11:00 +5°C° 0.2 mm 6 mps 760 mmHg 77%
    12:00 +5°C° 0.2 mm 7 mps 759 mmHg 76%
    13:00 +6°C° 0.2 mm 7 mps 759 mmHg 75%
    14:00 +6°C° 0.3 mm 7 mps 759 mmHg 76%
    15:00 +7°C° 0.3 mm 6 mps 759 mmHg 77%
    16:00 +7°C° 0.3 mm 6 mps 759 mmHg 78%
    17:00 +7°C° 0.3 mm 6 mps 759 mmHg 80%
    18:00 +7°C° 0.3 mm 6 mps 759 mmHg 82%
    19:00 +7°C° 0.3 mm 6 mps 759 mmHg 84%
    20:00 +7°C° 0.1 mm 6 mps 759 mmHg 85%
    21:00 +7°C° 0.1 mm 6 mps 759 mmHg 86%
    22:00 +7°C° 0.1 mm 6 mps 759 mmHg 87%
    23:00 +7°C° 0.1 mm 6 mps 760 mmHg 87%

    Day after tomorrow, 22 February, Friday

    Time Temperature Precipitation Wind Pressure Humidity
    00:00 +7°C° 0.1 mm 6 mps 760 mmHg 88%
    01:00 +7°C° 0.1 mm 6 mps 760 mmHg 88%
    02:00 +7°C° 0.1 mm 6 mps 760 mmHg 87%
    03:00 +7°C° 0.1 mm 6 mps 760 mmHg 86%
    04:00 +7°C° 0.1 mm 6 mps 761 mmHg 86%
    05:00 +5°C° 0.1 mm 6 mps 761 mmHg 85%
    06:00 +4°C° 0.1 mm 6 mps 762 mmHg 84%
    07:00 +3°C° 0.1 mm 6 mps 763 mmHg 84%
    08:00 +2°C° 0 mm 6 mps 764 mmHg 79%
    09:00 +1°C° 0 mm 5 mps 765 mmHg 75%
    10:00 +1°C° 0 mm 5 mps 766 mmHg 71%
    11:00 +1°C° 0 mm 5 mps 767 mmHg 64%
    12:00 +3°C° 0 mm 4 mps 767 mmHg 57%
    13:00 +3°C° 0 mm 4 mps 768 mmHg 50%
    14:00 +3°C° 0 mm 4 mps 769 mmHg 49%
    15:00 +3°C° 0 mm 4 mps 769 mmHg 48%
    16:00 +1°C° 0 mm 4 mps 770 mmHg 47%
    17:00 +1°C° 0 mm 3 mps 770 mmHg 51%
    18:00 0°C° 0 mm 3 mps 771 mmHg 55%
    19:00 -1°C° 0 mm 3 mps 771 mmHg 59%
    20:00 -1°C° 0 mm 3 mps 772 mmHg 59%
    21:00 -2°C° 0 mm 3 mps 773 mmHg 60%
    22:00 -2°C° 0 mm 2 mps 773 mmHg 60%
    23:00 -2°C° 0 mm 2 mps 774 mmHg 59%

    23 February, Saturday

    Time Temperature Precipitation Wind Pressure Humidity
    00:00 -2°C° 0 mm 2 mps 774 mmHg 58%
    01:00 -2°C° 0 mm 2 mps 774 mmHg 57%
    02:00 -3°C° 0 mm 2 mps 774 mmHg 56%
    03:00 -3°C° 0 mm 2 mps 774 mmHg 55%
    04:00 -3°C° 0 mm 2 mps 774 mmHg 54%
    05:00 -3°C° 0 mm 2 mps 774 mmHg 53%
    06:00 -3°C° 0 mm 2 mps 774 mmHg 53%
    07:00 -1°C° 0 mm 1 mps 774 mmHg 52%
    08:00 -2°C° 0 mm 2 mps 774 mmHg 47%
    09:00 -1°C° 0 mm 2 mps 774 mmHg 42%
    10:00 0°C° 0 mm 3 mps 774 mmHg 37%
    11:00 +1°C° 0 mm 3 mps 774 mmHg 33%
    12:00 +2°C° 0 mm 3 mps 774 mmHg 30%
    13:00 +3°C° 0 mm 3 mps 774 mmHg 27%
    14:00 +4°C° 0 mm 2 mps 773 mmHg 29%
    15:00 +4°C° 0 mm 2 mps 773 mmHg 31%
    16:00 +4°C° 0 mm 2 mps 772 mmHg 32%
    17:00 +3°C° 0 mm 2 mps 772 mmHg 36%
    18:00 +2°C° 0 mm 2 mps 772 mmHg 39%
    19:00 +1°C° 0 mm 2 mps 772 mmHg 42%
    20:00 -1°C° 0 mm 2 mps 772 mmHg 42%
    21:00 -1°C° 0 mm 2 mps 772 mmHg 43%
    22:00 -1°C° 0 mm 2 mps 772 mmHg 43%
    23:00 +1°C° 0 mm 1 mps 772 mmHg 43%

    24 February, Sunday

    Time Temperature Precipitation Wind Pressure Humidity
    00:00 +1°C° 0 mm 1 mps 772 mmHg 43%
    01:00 +1°C° 0 mm 1 mps 771 mmHg 43%
    02:00 +1°C° 0 mm 1 mps 771 mmHg 43%
    03:00 +1°C° 0 mm 1 mps 771 mmHg 43%
    04:00 +1°C° 0 mm 1 mps 771 mmHg 43%
    05:00 +1°C° 0 mm 1 mps 771 mmHg 43%
    06:00 +1°C° 0 mm 1 mps 770 mmHg 43%
    07:00 +1°C° 0 mm 1 mps 770 mmHg 43%
    08:00 +3°C° 0 mm 1 mps 770 mmHg 40%
    09:00 +3°C° 0 mm 2 mps 770 mmHg 37%
    10:00 +5°C° 0 mm 2 mps 770 mmHg 34%
    11:00 +6°C° 0 mm 2 mps 770 mmHg 33%
    12:00 +7°C° 0 mm 2 mps 770 mmHg 33%
    13:00 +9°C° 0 mm 2 mps 769 mmHg 32%
    14:00 +8°C° 0 mm 2 mps 769 mmHg 36%
    15:00 +8°C° 0 mm 2 mps 769 mmHg 40%
    16:00 +9°C° 0 mm 1 mps 768 mmHg 45%
    17:00 +8°C° 0 mm 1 mps 768 mmHg 47%
    18:00 +6°C° 0 mm 1 mps 768 mmHg 50%
    19:00 +5°C° 0 mm 1 mps 768 mmHg 53%
    20:00 +5°C° 0 mm 1 mps 768 mmHg 54%
    21:00 +5°C° 0 mm 1 mps 768 mmHg 55%
    22:00 +5°C° 0 mm 1 mps 768 mmHg 56%
    23:00 +5°C° 0 mm 1 mps 768 mmHg 57%

    25 February, Monday

    Time Temperature Precipitation Wind Pressure Humidity
    00:00 +5°C° 0 mm 1 mps 768 mmHg 58%
    01:00 +5°C° 0 mm 1 mps 768 mmHg 59%
    02:00 +5°C° 0 mm 1 mps 768 mmHg 61%
    03:00 +5°C° 0 mm 1 mps 767 mmHg 63%
    04:00 +4°C° 0 mm 1 mps 767 mmHg 65%
    05:00 +3°C° 0 mm 2 mps 767 mmHg 67%
    06:00 +3°C° 0 mm 2 mps 768 mmHg 69%
    07:00 +3°C° 0 mm 2 mps 768 mmHg 70%
    08:00 +4°C° 0 mm 2 mps 768 mmHg 68%
    09:00 +4°C° 0 mm 3 mps 768 mmHg 65%
    10:00 +5°C° 0 mm 3 mps 768 mmHg 63%
    11:00 +7°C° 0 mm 3 mps 768 mmHg 61%
    12:00 +9°C° 0 mm 3 mps 768 mmHg 59%
    13:00 +10°C° 0 mm 3 mps 768 mmHg 57%
    14:00 +10°C° 0 mm 3 mps 768 mmHg 59%
    15:00 +10°C° 0 mm 3 mps 768 mmHg 61%
    16:00 +10°C° 0 mm 3 mps 768 mmHg 63%
    17:00 +9°C° 0 mm 2 mps 768 mmHg 69%
    18:00 +7°C° 0 mm 2 mps 768 mmHg 75%
    19:00 +6°C° 0 mm 2 mps 768 mmHg 81%
    20:00 +6°C° 0 mm 2 mps 768 mmHg 84%
    21:00 +6°C° 0 mm 1 mps 768 mmHg 86%
    22:00 +6°C° 0 mm 1 mps 768 mmHg 88%
    23:00 +5°C° 0 mm 2 mps 768 mmHg 90%
    Show more